owner,sensor,date,latitude,longitude,vertical_datum,mass_concentration_of_oxygen_in_sea_water,qcFlag 
DISL,ioos:station:DISL:KATA:1,2015-05-01T00:00:00Z,30.2583,-88.2131,3.914,1.81,1111122 
DISL,ioos:station:DISL:KATA:1,2015-05-01T00:30:00Z,30.2583,-88.2131,3.907,1.51,1111122 
DISL,ioos:station:DISL:KATA:1,2015-05-01T01:00:00Z,30.2583,-88.2131,3.904,1.46,1111122 
DISL,ioos:station:DISL:KATA:1,2015-05-01T01:30:00Z,30.2583,-88.2131,3.89,1.53,1111122 
DISL,ioos:station:DISL:KATA:1,2015-05-01T02:00:00Z,30.2583,-88.2131,3.874,1.58,1111122 
DISL,ioos:station:DISL:KATA:1,2015-05-01T02:30:00Z,30.2583,-88.2131,3.857,1.52,1111122 
DISL,ioos:station:DISL:KATA:1,2015-05-01T03:00:00Z,30.2583,-88.2131,3.854,1.19,1111122 
DISL,ioos:station:DISL:KATA:1,2015-05-01T03:30:00Z,30.2583,-88.2131,3.865,1.21,1111122 
DISL,ioos:station:DISL:KATA:1,2015-05-01T04:00:00Z,30.2583,-88.2131,3.88,1.13,1111122 
DISL,ioos:station:DISL:KATA:1,2015-05-01T04:30:00Z,30.2583,-88.2131,3.895,0.53,1111122 
DISL,ioos:station:DISL:KATA:1,2015-05-01T05:00:00Z,30.2583,-88.2131,3.909,0.47,1111122 
DISL,ioos:station:DISL:KATA:1,2015-05-01T05:30:00Z,30.2583,-88.2131,3.927,0.44,1111122 
DISL,ioos:station:DISL:KATA:1,2015-05-01T06:00:00Z,30.2583,-88.2131,3.918,0.72,1111122 
DISL,ioos:station:DISL:KATA:1,2015-05-01T06:30:00Z,30.2583,-88.2131,3.916,0.53,1111122 
DISL,ioos:station:DISL:KATA:1,2015-05-01T07:00:00Z,30.2583,-88.2131,3.904,0.62,1111122 
DISL,ioos:station:DISL:KATA:1,2015-05-01T07:30:00Z,30.2583,-88.2131,3.894,0.65,1111122 
DISL,ioos:station:DISL:KATA:1,2015-05-01T08:00:00Z,30.2583,-88.2131,3.898,0.78,1111122 
DISL,ioos:station:DISL:KATA:1,2015-05-01T08:30:00Z,30.2583,-88.2131,3.896,0.72,1111122 
DISL,ioos:station:DISL:KATA:1,2015-05-01T09:00:00Z,30.2583,-88.2131,3.902,0.81,1111122 
DISL,ioos:station:DISL:KATA:1,2015-05-01T09:30:00Z,30.2583,-88.2131,3.91,0.83,1111122 
DISL,ioos:station:DISL:KATA:1,2015-05-01T10:00:00Z,30.2583,-88.2131,3.919,0.95,1111122 
DISL,ioos:station:DISL:KATA:1,2015-05-01T10:30:00Z,30.2583,-88.2131,3.935,0.98,1111122 
DISL,ioos:station:DISL:KATA:1,2015-05-01T11:00:00Z,30.2583,-88.2131,3.95,1.12,1111122 
DISL,ioos:station:DISL:KATA:1,2015-05-01T11:30:00Z,30.2583,-88.2131,3.98,1.18,1111122 
DISL,ioos:station:DISL:KATA:1,2015-05-01T12:00:00Z,30.2583,-88.2131,4.012,1.41,1111122 
DISL,ioos:station:DISL:KATA:1,2015-05-01T12:30:00Z,30.2583,-88.2131,4.022,1.34,1111122 
DISL,ioos:station:DISL:KATA:1,2015-05-01T13:00:00Z,30.2583,-88.2131,4.013,1.26,1111122 
DISL,ioos:station:DISL:KATA:1,2015-05-01T13:30:00Z,30.2583,-88.2131,3.998,1.13,1111122 
DISL,ioos:station:DISL:KATA:1,2015-05-01T14:00:00Z,30.2583,-88.2131,3.987,1.43,1111122 
DISL,ioos:station:DISL:KATA:1,2015-05-01T14:30:00Z,30.2583,-88.2131,3.976,1.21,1111122 
DISL,ioos:station:DISL:KATA:1,2015-05-01T15:00:00Z,30.2583,-88.2131,3.963,1.18,1111122 
DISL,ioos:station:DISL:KATA:1,2015-05-01T15:30:00Z,30.2583,-88.2131,3.957,1.08,1111122 
DISL,ioos:station:DISL:KATA:1,2015-05-01T16:00:00Z,30.2583,-88.2131,3.955,0.97,1111122 
DISL,ioos:station:DISL:KATA:1,2015-05-01T16:30:00Z,30.2583,-88.2131,3.951,0.95,1111122 
DISL,ioos:station:DISL:KATA:1,2015-05-01T17:00:00Z,30.2583,-88.2131,3.956,0.98,1111122 
DISL,ioos:station:DISL:KATA:1,2015-05-01T17:30:00Z,30.2583,-88.2131,3.962,1.0,1111122 
DISL,ioos:station:DISL:KATA:1,2015-05-01T18:00:00Z,30.2583,-88.2131,3.958,1.05,1111122 
DISL,ioos:station:DISL:KATA:1,2015-05-01T18:30:00Z,30.2583,-88.2131,3.952,1.19,1111122 
DISL,ioos:station:DISL:KATA:1,2015-05-01T19:00:00Z,30.2583,-88.2131,3.934,0.96,1111122 
DISL,ioos:station:DISL:KATA:1,2015-05-01T19:30:00Z,30.2583,-88.2131,3.904,1.23,1111122 
DISL,ioos:station:DISL:KATA:1,2015-05-01T20:00:00Z,30.2583,-88.2131,3.873,1.28,1111122 
DISL,ioos:station:DISL:KATA:1,2015-05-01T20:30:00Z,30.2583,-88.2131,3.85,1.13,1111122 
DISL,ioos:station:DISL:KATA:1,2015-05-01T21:00:00Z,30.2583,-88.2131,3.833,0.8,1111122 
DISL,ioos:station:DISL:KATA:1,2015-05-01T21:30:00Z,30.2583,-88.2131,3.814,1.22,1111122 
DISL,ioos:station:DISL:KATA:1,2015-05-01T22:00:00Z,30.2583,-88.2131,3.815,1.1,1111122 
DISL,ioos:station:DISL:KATA:1,2015-05-01T22:30:00Z,30.2583,-88.2131,3.814,1.21,1111122 
DISL,ioos:station:DISL:KATA:1,2015-05-01T23:00:00Z,30.2583,-88.2131,3.813,1.79,1111122 
DISL,ioos:station:DISL:KATA:1,2015-05-01T23:30:00Z,30.2583,-88.2131,3.818,1.85,1111122 
DISL,ioos:station:DISL:KATA:1,2015-05-02T00:00:00Z,30.2583,-88.2131,3.842,2.23,1111122 
DISL,ioos:station:DISL:KATA:1,2015-05-02T00:30:00Z,30.2583,-88.2131,3.844,2.17,1111122 
DISL,ioos:station:DISL:KATA:1,2015-05-02T01:00:00Z,30.2583,-88.2131,3.854,2.3,1111122 
DISL,ioos:station:DISL:KATA:1,2015-05-02T01:30:00Z,30.2583,-88.2131,3.854,2.39,1111122 
DISL,ioos:station:DISL:KATA:1,2015-05-02T02:00:00Z,30.2583,-88.2131,3.841,2.46,1111122 
DISL,ioos:station:DISL:KATA:1,2015-05-02T02:30:00Z,30.2583,-88.2131,3.839,2.44,1111122 
DISL,ioos:station:DISL:KATA:1,2015-05-02T03:00:00Z,30.2583,-88.2131,3.844,2.54,1111122 
DISL,ioos:station:DISL:KATA:1,2015-05-02T03:30:00Z,30.2583,-88.2131,3.841,4.02,1111122 
DISL,ioos:station:DISL:KATA:1,2015-05-02T04:00:00Z,30.2583,-88.2131,3.838,3.73,1111122 
DISL,ioos:station:DISL:KATA:1,2015-05-02T04:30:00Z,30.2583,-88.2131,3.823,3.9,1111122 
DISL,ioos:station:DISL:KATA:1,2015-05-02T05:00:00Z,30.2583,-88.2131,3.822,3.14,1111122 
DISL,ioos:station:DISL:KATA:1,2015-05-02T05:30:00Z,30.2583,-88.2131,3.824,3.12,1111122 
DISL,ioos:station:DISL:KATA:1,2015-05-02T06:00:00Z,30.2583,-88.2131,3.839,2.9,1111122 
DISL,ioos:station:DISL:KATA:1,2015-05-02T06:30:00Z,30.2583,-88.2131,3.852,2.82,1111122 
DISL,ioos:station:DISL:KATA:1,2015-05-02T07:00:00Z,30.2583,-88.2131,3.861,2.78,1111122 
DISL,ioos:station:DISL:KATA:1,2015-05-02T07:30:00Z,30.2583,-88.2131,3.874,2.92,1111122 
DISL,ioos:station:DISL:KATA:1,2015-05-02T08:00:00Z,30.2583,-88.2131,3.886,3.06,1111122 
DISL,ioos:station:DISL:KATA:1,2015-05-02T08:30:00Z,30.2583,-88.2131,3.894,3.12,1111122 
DISL,ioos:station:DISL:KATA:1,2015-05-02T09:00:00Z,30.2583,-88.2131,3.912,3.25,1111122 
DISL,ioos:station:DISL:KATA:1,2015-05-02T09:30:00Z,30.2583,-88.2131,3.935,3.48,1111122 
DISL,ioos:station:DISL:KATA:1,2015-05-02T10:00:00Z,30.2583,-88.2131,3.968,3.69,1111122 
DISL,ioos:station:DISL:KATA:1,2015-05-02T10:30:00Z,30.2583,-88.2131,4.002,3.9,1111122 
DISL,ioos:station:DISL:KATA:1,2015-05-02T11:00:00Z,30.2583,-88.2131,4.034,4.07,1111122 
DISL,ioos:station:DISL:KATA:1,2015-05-02T11:30:00Z,30.2583,-88.2131,4.059,4.33,1111122 
DISL,ioos:station:DISL:KATA:1,2015-05-02T12:00:00Z,30.2583,-88.2131,4.077,4.38,1111122 
DISL,ioos:station:DISL:KATA:1,2015-05-02T12:30:00Z,30.2583,-88.2131,4.088,4.57,1111122 
DISL,ioos:station:DISL:KATA:1,2015-05-02T13:00:00Z,30.2583,-88.2131,4.103,4.78,1111122 
DISL,ioos:station:DISL:KATA:1,2015-05-02T13:30:00Z,30.2583,-88.2131,4.111,4.67,1111122 
DISL,ioos:station:DISL:KATA:1,2015-05-02T14:00:00Z,30.2583,-88.2131,4.117,4.51,1111122 
DISL,ioos:station:DISL:KATA:1,2015-05-02T14:30:00Z,30.2583,-88.2131,4.119,4.46,1111122 
DISL,ioos:station:DISL:KATA:1,2015-05-02T15:00:00Z,30.2583,-88.2131,4.114,4.25,1111122 
DISL,ioos:station:DISL:KATA:1,2015-05-02T15:30:00Z,30.2583,-88.2131,4.107,3.92,1111122 
DISL,ioos:station:DISL:KATA:1,2015-05-02T16:00:00Z,30.2583,-88.2131,4.096,3.8,1111122 
DISL,ioos:station:DISL:KATA:1,2015-05-02T16:30:00Z,30.2583,-88.2131,4.08,3.72,1111122 
DISL,ioos:station:DISL:KATA:1,2015-05-02T17:00:00Z,30.2583,-88.2131,4.066,3.57,1111122 
DISL,ioos:station:DISL:KATA:1,2015-05-02T17:30:00Z,30.2583,-88.2131,4.044,3.34,1111122 
DISL,ioos:station:DISL:KATA:1,2015-05-02T18:00:00Z,30.2583,-88.2131,4.017,2.92,1111122 
DISL,ioos:station:DISL:KATA:1,2015-05-02T18:30:00Z,30.2583,-88.2131,3.981,2.7,1111122 
DISL,ioos:station:DISL:KATA:1,2015-05-02T19:00:00Z,30.2583,-88.2131,3.943,3.12,1111122 
DISL,ioos:station:DISL:KATA:1,2015-05-02T19:30:00Z,30.2583,-88.2131,3.907,3.26,1111122 
DISL,ioos:station:DISL:KATA:1,2015-05-02T20:00:00Z,30.2583,-88.2131,3.871,2.97,1111122 
DISL,ioos:station:DISL:KATA:1,2015-05-02T20:30:00Z,30.2583,-88.2131,3.833,2.67,1111122 
DISL,ioos:station:DISL:KATA:1,2015-05-02T21:00:00Z,30.2583,-88.2131,3.801,2.33,1111122 
DISL,ioos:station:DISL:KATA:1,2015-05-02T21:30:00Z,30.2583,-88.2131,3.774,2.76,1111122 
DISL,ioos:station:DISL:KATA:1,2015-05-02T22:00:00Z,30.2583,-88.2131,3.753,2.48,1111122 
DISL,ioos:station:DISL:KATA:1,2015-05-02T22:30:00Z,30.2583,-88.2131,3.743,2.7,1111122 
DISL,ioos:station:DISL:KATA:1,2015-05-02T23:00:00Z,30.2583,-88.2131,3.743,2.84,1111122 
DISL,ioos:station:DISL:KATA:1,2015-05-02T23:30:00Z,30.2583,-88.2131,3.754,3.3,1111122 
DISL,ioos:station:DISL:KATA:1,2015-05-03T00:00:00Z,30.2583,-88.2131,3.763,2.92,1111122 
DISL,ioos:station:DISL:KATA:1,2015-05-03T00:30:00Z,30.2583,-88.2131,3.785,3.07,1111122 
DISL,ioos:station:DISL:KATA:1,2015-05-03T01:00:00Z,30.2583,-88.2131,3.807,3.04,1111122 
DISL,ioos:station:DISL:KATA:1,2015-05-03T01:30:00Z,30.2583,-88.2131,3.824,3.09,1111122 
DISL,ioos:station:DISL:KATA:1,2015-05-03T02:00:00Z,30.2583,-88.2131,3.833,3.08,1111122 
DISL,ioos:station:DISL:KATA:1,2015-05-03T02:30:00Z,30.2583,-88.2131,3.839,2.9,1111122 
DISL,ioos:station:DISL:KATA:1,2015-05-03T03:00:00Z,30.2583,-88.2131,3.85,2.81,1111122 
DISL,ioos:station:DISL:KATA:1,2015-05-03T03:30:00Z,30.2583,-88.2131,3.86,2.8,1111122 
DISL,ioos:station:DISL:KATA:1,2015-05-03T04:00:00Z,30.2583,-88.2131,3.881,2.72,1111122 
DISL,ioos:station:DISL:KATA:1,2015-05-03T04:30:00Z,30.2583,-88.2131,3.903,2.73,1111122 
DISL,ioos:station:DISL:KATA:1,2015-05-03T05:00:00Z,30.2583,-88.2131,3.923,2.84,1111122 
DISL,ioos:station:DISL:KATA:1,2015-05-03T05:30:00Z,30.2583,-88.2131,3.945,3.16,1111122 
DISL,ioos:station:DISL:KATA:1,2015-05-03T06:00:00Z,30.2583,-88.2131,3.968,3.32,1111122 
DISL,ioos:station:DISL:KATA:1,2015-05-03T06:30:00Z,30.2583,-88.2131,3.979,3.65,1111122 
DISL,ioos:station:DISL:KATA:1,2015-05-03T07:00:00Z,30.2583,-88.2131,3.99,3.74,1111122 
DISL,ioos:station:DISL:KATA:1,2015-05-03T07:30:00Z,30.2583,-88.2131,3.995,3.81,1111122 
DISL,ioos:station:DISL:KATA:1,2015-05-03T08:00:00Z,30.2583,-88.2131,3.996,4.06,1111122 
DISL,ioos:station:DISL:KATA:1,2015-05-03T08:30:00Z,30.2583,-88.2131,3.995,4.2,1111122 
DISL,ioos:station:DISL:KATA:1,2015-05-03T09:00:00Z,30.2583,-88.2131,4.006,4.66,1111122 
DISL,ioos:station:DISL:KATA:1,2015-05-03T09:30:00Z,30.2583,-88.2131,4.021,4.75,1111122 
DISL,ioos:station:DISL:KATA:1,2015-05-03T10:00:00Z,30.2583,-88.2131,4.039,4.91,1111122 
DISL,ioos:station:DISL:KATA:1,2015-05-03T10:30:00Z,30.2583,-88.2131,4.063,4.87,1111122 
DISL,ioos:station:DISL:KATA:1,2015-05-03T11:00:00Z,30.2583,-88.2131,4.087,4.84,1111122 
DISL,ioos:station:DISL:KATA:1,2015-05-03T11:30:00Z,30.2583,-88.2131,4.104,5.06,1111122 
DISL,ioos:station:DISL:KATA:1,2015-05-03T12:00:00Z,30.2583,-88.2131,4.126,4.85,1111122 
DISL,ioos:station:DISL:KATA:1,2015-05-03T12:30:00Z,30.2583,-88.2131,4.143,5.34,1111122 
DISL,ioos:station:DISL:KATA:1,2015-05-03T13:00:00Z,30.2583,-88.2131,4.162,5.45,1111122 
DISL,ioos:station:DISL:KATA:1,2015-05-03T13:30:00Z,30.2583,-88.2131,4.175,5.04,1111122 
DISL,ioos:station:DISL:KATA:1,2015-05-03T14:00:00Z,30.2583,-88.2131,4.182,4.69,1111122 
DISL,ioos:station:DISL:KATA:1,2015-05-03T14:30:00Z,30.2583,-88.2131,4.182,5.0,1111122 
DISL,ioos:station:DISL:KATA:1,2015-05-03T15:00:00Z,30.2583,-88.2131,4.179,5.13,1111122 
DISL,ioos:station:DISL:KATA:1,2015-05-03T15:30:00Z,30.2583,-88.2131,4.169,4.78,1111122 
DISL,ioos:station:DISL:KATA:1,2015-05-03T16:00:00Z,30.2583,-88.2131,4.155,4.65,1111122 
DISL,ioos:station:DISL:KATA:1,2015-05-03T16:30:00Z,30.2583,-88.2131,4.136,4.83,1111122 
DISL,ioos:station:DISL:KATA:1,2015-05-03T17:00:00Z,30.2583,-88.2131,4.122,4.5,1111122 
DISL,ioos:station:DISL:KATA:1,2015-05-03T17:30:00Z,30.2583,-88.2131,4.107,4.39,1111122 
DISL,ioos:station:DISL:KATA:1,2015-05-03T18:00:00Z,30.2583,-88.2131,4.092,3.95,1111122 
DISL,ioos:station:DISL:KATA:1,2015-05-03T18:30:00Z,30.2583,-88.2131,4.067,2.97,1111122 
DISL,ioos:station:DISL:KATA:1,2015-05-03T19:00:00Z,30.2583,-88.2131,4.043,2.54,1111122 
DISL,ioos:station:DISL:KATA:1,2015-05-03T19:30:00Z,30.2583,-88.2131,4.007,3.6,1111122 
DISL,ioos:station:DISL:KATA:1,2015-05-03T20:00:00Z,30.2583,-88.2131,3.966,4.38,1111122 
DISL,ioos:station:DISL:KATA:1,2015-05-03T20:30:00Z,30.2583,-88.2131,3.922,4.65,1111122 
DISL,ioos:station:DISL:KATA:1,2015-05-03T21:00:00Z,30.2583,-88.2131,3.872,5.0,1111122 
DISL,ioos:station:DISL:KATA:1,2015-05-03T21:30:00Z,30.2583,-88.2131,3.827,5.02,1111122 
DISL,ioos:station:DISL:KATA:1,2015-05-03T22:00:00Z,30.2583,-88.2131,3.793,5.29,1111122 
DISL,ioos:station:DISL:KATA:1,2015-05-03T22:30:00Z,30.2583,-88.2131,3.761,5.56,1111122 
DISL,ioos:station:DISL:KATA:1,2015-05-03T23:00:00Z,30.2583,-88.2131,3.742,5.9,1111122 
DISL,ioos:station:DISL:KATA:1,2015-05-03T23:30:00Z,30.2583,-88.2131,3.738,4.51,1111122 
DISL,ioos:station:DISL:KATA:1,2015-05-04T00:00:00Z,30.2583,-88.2131,3.738,4.15,1111122 
DISL,ioos:station:DISL:KATA:1,2015-05-04T00:30:00Z,30.2583,-88.2131,3.754,4.41,1111122 
DISL,ioos:station:DISL:KATA:1,2015-05-04T01:00:00Z,30.2583,-88.2131,3.771,4.19,1111122 
DISL,ioos:station:DISL:KATA:1,2015-05-04T01:30:00Z,30.2583,-88.2131,3.795,4.18,1111122 
DISL,ioos:station:DISL:KATA:1,2015-05-04T02:00:00Z,30.2583,-88.2131,3.819,4.18,1111122 
DISL,ioos:station:DISL:KATA:1,2015-05-04T02:30:00Z,30.2583,-88.2131,3.834,3.89,1111122 
DISL,ioos:station:DISL:KATA:1,2015-05-04T03:00:00Z,30.2583,-88.2131,3.846,4.3,1111122 
DISL,ioos:station:DISL:KATA:1,2015-05-04T03:30:00Z,30.2583,-88.2131,3.866,4.15,1111122 
DISL,ioos:station:DISL:KATA:1,2015-05-04T04:00:00Z,30.2583,-88.2131,3.879,3.89,1111122 
DISL,ioos:station:DISL:KATA:1,2015-05-04T04:30:00Z,30.2583,-88.2131,3.893,3.66,1111122 
DISL,ioos:station:DISL:KATA:1,2015-05-04T05:00:00Z,30.2583,-88.2131,3.927,3.28,1111122 
DISL,ioos:station:DISL:KATA:1,2015-05-04T05:30:00Z,30.2583,-88.2131,3.964,2.99,1111122 
DISL,ioos:station:DISL:KATA:1,2015-05-04T06:00:00Z,30.2583,-88.2131,4.002,3.2,1111122 
DISL,ioos:station:DISL:KATA:1,2015-05-04T06:30:00Z,30.2583,-88.2131,4.023,3.87,1111122 
DISL,ioos:station:DISL:KATA:1,2015-05-04T07:00:00Z,30.2583,-88.2131,4.033,5.24,1111122 
DISL,ioos:station:DISL:KATA:1,2015-05-04T07:30:00Z,30.2583,-88.2131,4.052,4.95,1111122 
DISL,ioos:station:DISL:KATA:1,2015-05-04T08:00:00Z,30.2583,-88.2131,4.068,5.0,1111122 
DISL,ioos:station:DISL:KATA:1,2015-05-04T08:30:00Z,30.2583,-88.2131,4.087,4.45,1111122 
DISL,ioos:station:DISL:KATA:1,2015-05-04T09:00:00Z,30.2583,-88.2131,4.101,4.58,1111122 
DISL,ioos:station:DISL:KATA:1,2015-05-04T09:30:00Z,30.2583,-88.2131,4.109,4.22,1111122 
DISL,ioos:station:DISL:KATA:1,2015-05-04T10:00:00Z,30.2583,-88.2131,4.121,3.69,1111122 
DISL,ioos:station:DISL:KATA:1,2015-05-04T10:30:00Z,30.2583,-88.2131,4.134,3.12,1111122 
DISL,ioos:station:DISL:KATA:1,2015-05-04T11:00:00Z,30.2583,-88.2131,4.152,3.21,1111122 
DISL,ioos:station:DISL:KATA:1,2015-05-04T11:30:00Z,30.2583,-88.2131,4.159,2.99,1111122 
DISL,ioos:station:DISL:KATA:1,2015-05-04T12:00:00Z,30.2583,-88.2131,4.179,2.92,1111122 
DISL,ioos:station:DISL:KATA:1,2015-05-04T12:30:00Z,30.2583,-88.2131,4.197,2.73,1111122 
DISL,ioos:station:DISL:KATA:1,2015-05-04T13:00:00Z,30.2583,-88.2131,4.227,2.85,1111122 
DISL,ioos:station:DISL:KATA:1,2015-05-04T13:30:00Z,30.2583,-88.2131,4.25,2.75,1111122 
DISL,ioos:station:DISL:KATA:1,2015-05-04T14:00:00Z,30.2583,-88.2131,4.263,2.75,1111122 
DISL,ioos:station:DISL:KATA:1,2015-05-04T14:30:00Z,30.2583,-88.2131,4.278,2.91,1111122 
DISL,ioos:station:DISL:KATA:1,2015-05-04T15:00:00Z,30.2583,-88.2131,4.268,3.04,1111122 
DISL,ioos:station:DISL:KATA:1,2015-05-04T15:30:00Z,30.2583,-88.2131,4.252,3.26,1111122 
DISL,ioos:station:DISL:KATA:1,2015-05-04T16:00:00Z,30.2583,-88.2131,4.235,2.97,1111122 
DISL,ioos:station:DISL:KATA:1,2015-05-04T16:30:00Z,30.2583,-88.2131,4.221,3.39,1111122 
DISL,ioos:station:DISL:KATA:1,2015-05-04T17:00:00Z,30.2583,-88.2131,4.215,3.9,1111122 
DISL,ioos:station:DISL:KATA:1,2015-05-04T17:30:00Z,30.2583,-88.2131,4.199,4.3,1111122 
DISL,ioos:station:DISL:KATA:1,2015-05-04T18:00:00Z,30.2583,-88.2131,4.183,4.53,1111122 
DISL,ioos:station:DISL:KATA:1,2015-05-04T18:30:00Z,30.2583,-88.2131,4.175,4.37,1111122 
DISL,ioos:station:DISL:KATA:1,2015-05-04T19:00:00Z,30.2583,-88.2131,4.162,3.85,1111122 
DISL,ioos:station:DISL:KATA:1,2015-05-04T19:30:00Z,30.2583,-88.2131,4.138,3.77,1111122 
DISL,ioos:station:DISL:KATA:1,2015-05-04T20:00:00Z,30.2583,-88.2131,4.108,3.29,1111122 
DISL,ioos:station:DISL:KATA:1,2015-05-04T20:30:00Z,30.2583,-88.2131,4.059,3.11,1111122 
DISL,ioos:station:DISL:KATA:1,2015-05-04T21:00:00Z,30.2583,-88.2131,4.003,3.05,1111122 
DISL,ioos:station:DISL:KATA:1,2015-05-04T21:30:00Z,30.2583,-88.2131,3.952,2.1,1111122 
DISL,ioos:station:DISL:KATA:1,2015-05-04T22:00:00Z,30.2583,-88.2131,3.905,2.27,1111122 
DISL,ioos:station:DISL:KATA:1,2015-05-04T22:30:00Z,30.2583,-88.2131,3.867,2.23,1111122 
DISL,ioos:station:DISL:KATA:1,2015-05-04T23:00:00Z,30.2583,-88.2131,3.838,1.62,1111122 
DISL,ioos:station:DISL:KATA:1,2015-05-04T23:30:00Z,30.2583,-88.2131,3.822,2.16,1111122 
DISL,ioos:station:DISL:KATA:1,2015-05-05T00:00:00Z,30.2583,-88.2131,3.815,1.56,1111122 
DISL,ioos:station:DISL:KATA:1,2015-05-05T00:30:00Z,30.2583,-88.2131,3.831,2.39,1111122 
DISL,ioos:station:DISL:KATA:1,2015-05-05T01:00:00Z,30.2583,-88.2131,3.845,2.48,1111122 
DISL,ioos:station:DISL:KATA:1,2015-05-05T01:30:00Z,30.2583,-88.2131,3.859,2.3,1111122 
DISL,ioos:station:DISL:KATA:1,2015-05-05T02:00:00Z,30.2583,-88.2131,3.875,2.14,1111122 
DISL,ioos:station:DISL:KATA:1,2015-05-05T02:30:00Z,30.2583,-88.2131,3.888,2.64,1111122 
DISL,ioos:station:DISL:KATA:1,2015-05-05T03:00:00Z,30.2583,-88.2131,3.902,3.21,1111122 
DISL,ioos:station:DISL:KATA:1,2015-05-05T03:30:00Z,30.2583,-88.2131,3.9,2.93,1111122 
DISL,ioos:station:DISL:KATA:1,2015-05-05T04:00:00Z,30.2583,-88.2131,3.901,3.16,1111122 
DISL,ioos:station:DISL:KATA:1,2015-05-05T04:30:00Z,30.2583,-88.2131,3.899,3.07,1111122 
DISL,ioos:station:DISL:KATA:1,2015-05-05T05:00:00Z,30.2583,-88.2131,3.9,2.79,1111122 
DISL,ioos:station:DISL:KATA:1,2015-05-05T05:30:00Z,30.2583,-88.2131,3.916,2.64,1111122 
DISL,ioos:station:DISL:KATA:1,2015-05-05T06:00:00Z,30.2583,-88.2131,3.949,2.92,1111122 
DISL,ioos:station:DISL:KATA:1,2015-05-05T06:30:00Z,30.2583,-88.2131,3.971,3.21,1111122 
DISL,ioos:station:DISL:KATA:1,2015-05-05T07:00:00Z,30.2583,-88.2131,4.0,3.93,1111122 
DISL,ioos:station:DISL:KATA:1,2015-05-05T07:30:00Z,30.2583,-88.2131,4.019,4.0,1111122 
DISL,ioos:station:DISL:KATA:1,2015-05-05T08:00:00Z,30.2583,-88.2131,4.036,4.22,1111122 
DISL,ioos:station:DISL:KATA:1,2015-05-05T08:30:00Z,30.2583,-88.2131,4.056,4.43,1111122 
DISL,ioos:station:DISL:KATA:1,2015-05-05T09:00:00Z,30.2583,-88.2131,4.076,4.4,1111122 
DISL,ioos:station:DISL:KATA:1,2015-05-05T09:30:00Z,30.2583,-88.2131,4.09,4.41,1111122 
DISL,ioos:station:DISL:KATA:1,2015-05-05T10:00:00Z,30.2583,-88.2131,4.096,4.37,1111122 
DISL,ioos:station:DISL:KATA:1,2015-05-05T10:30:00Z,30.2583,-88.2131,4.104,4.18,1111122 
DISL,ioos:station:DISL:KATA:1,2015-05-05T11:00:00Z,30.2583,-88.2131,4.113,4.33,1111122 
DISL,ioos:station:DISL:KATA:1,2015-05-05T11:30:00Z,30.2583,-88.2131,4.125,4.44,1111122 
DISL,ioos:station:DISL:KATA:1,2015-05-05T12:00:00Z,30.2583,-88.2131,4.155,4.41,1111122 
DISL,ioos:station:DISL:KATA:1,2015-05-05T12:30:00Z,30.2583,-88.2131,4.172,4.45,1111122 
DISL,ioos:station:DISL:KATA:1,2015-05-05T13:00:00Z,30.2583,-88.2131,4.199,4.56,1111122 
DISL,ioos:station:DISL:KATA:1,2015-05-05T13:30:00Z,30.2583,-88.2131,4.232,4.24,1111122 
DISL,ioos:station:DISL:KATA:1,2015-05-05T14:00:00Z,30.2583,-88.2131,4.26,4.4,1111122 
DISL,ioos:station:DISL:KATA:1,2015-05-05T14:30:00Z,30.2583,-88.2131,4.283,4.39,1111122 
DISL,ioos:station:DISL:KATA:1,2015-05-05T15:00:00Z,30.2583,-88.2131,4.301,4.41,1111122 
DISL,ioos:station:DISL:KATA:1,2015-05-05T15:30:00Z,30.2583,-88.2131,4.323,4.43,1111122 
DISL,ioos:station:DISL:KATA:1,2015-05-05T16:00:00Z,30.2583,-88.2131,4.332,4.73,1111122 
DISL,ioos:station:DISL:KATA:1,2015-05-05T16:30:00Z,30.2583,-88.2131,4.331,4.45,1111122 
DISL,ioos:station:DISL:KATA:1,2015-05-05T17:00:00Z,30.2583,-88.2131,4.337,4.29,1111122 
DISL,ioos:station:DISL:KATA:1,2015-05-05T17:30:00Z,30.2583,-88.2131,4.332,3.95,1111122 
DISL,ioos:station:DISL:KATA:1,2015-05-05T18:00:00Z,30.2583,-88.2131,4.329,3.73,1111122 
DISL,ioos:station:DISL:KATA:1,2015-05-05T18:30:00Z,30.2583,-88.2131,4.317,3.87,1111122 
DISL,ioos:station:DISL:KATA:1,2015-05-05T19:00:00Z,30.2583,-88.2131,4.294,3.7,1111122 
DISL,ioos:station:DISL:KATA:1,2015-05-05T19:30:00Z,30.2583,-88.2131,4.262,3.49,1111122 
DISL,ioos:station:DISL:KATA:1,2015-05-05T20:00:00Z,30.2583,-88.2131,4.219,3.72,1111122 
DISL,ioos:station:DISL:KATA:1,2015-05-05T20:30:00Z,30.2583,-88.2131,4.173,3.08,1111122 
DISL,ioos:station:DISL:KATA:1,2015-05-05T21:00:00Z,30.2583,-88.2131,4.129,3.4,1111122 
DISL,ioos:station:DISL:KATA:1,2015-05-05T21:30:00Z,30.2583,-88.2131,4.077,1.92,1111122 
DISL,ioos:station:DISL:KATA:1,2015-05-05T22:00:00Z,30.2583,-88.2131,4.028,2.57,1111122 
DISL,ioos:station:DISL:KATA:1,2015-05-05T22:30:00Z,30.2583,-88.2131,3.985,4.23,1111122 
DISL,ioos:station:DISL:KATA:1,2015-05-05T23:00:00Z,30.2583,-88.2131,3.946,2.91,1111122 
DISL,ioos:station:DISL:KATA:1,2015-05-05T23:30:00Z,30.2583,-88.2131,3.921,3.87,1111122 
DISL,ioos:station:DISL:KATA:1,2015-05-06T00:00:00Z,30.2583,-88.2131,3.899,4.53,1111122 
DISL,ioos:station:DISL:KATA:1,2015-05-06T00:30:00Z,30.2583,-88.2131,3.888,4.43,1111122 
DISL,ioos:station:DISL:KATA:1,2015-05-06T01:00:00Z,30.2583,-88.2131,3.881,2.87,1111122 
DISL,ioos:station:DISL:KATA:1,2015-05-06T01:30:00Z,30.2583,-88.2131,3.88,2.15,1111122 
DISL,ioos:station:DISL:KATA:1,2015-05-06T02:00:00Z,30.2583,-88.2131,3.895,2.61,1111122 
DISL,ioos:station:DISL:KATA:1,2015-05-06T02:30:00Z,30.2583,-88.2131,3.902,2.47,1111122 
DISL,ioos:station:DISL:KATA:1,2015-05-06T03:00:00Z,30.2583,-88.2131,3.915,2.34,1111122 
DISL,ioos:station:DISL:KATA:1,2015-05-06T03:30:00Z,30.2583,-88.2131,3.919,2.45,1111122 
DISL,ioos:station:DISL:KATA:1,2015-05-06T04:00:00Z,30.2583,-88.2131,3.922,2.67,1111122 
DISL,ioos:station:DISL:KATA:1,2015-05-06T04:30:00Z,30.2583,-88.2131,3.919,2.71,1111122 
DISL,ioos:station:DISL:KATA:1,2015-05-06T05:00:00Z,30.2583,-88.2131,3.92,3.03,1111122 
DISL,ioos:station:DISL:KATA:1,2015-05-06T05:30:00Z,30.2583,-88.2131,3.929,2.91,1111122 
DISL,ioos:station:DISL:KATA:1,2015-05-06T06:00:00Z,30.2583,-88.2131,3.945,2.91,1111122 
DISL,ioos:station:DISL:KATA:1,2015-05-06T06:30:00Z,30.2583,-88.2131,3.967,2.83,1111122 
DISL,ioos:station:DISL:KATA:1,2015-05-06T07:00:00Z,30.2583,-88.2131,3.985,2.63,1111122 
DISL,ioos:station:DISL:KATA:1,2015-05-06T07:30:00Z,30.2583,-88.2131,4.006,2.59,1111122 
DISL,ioos:station:DISL:KATA:1,2015-05-06T08:00:00Z,30.2583,-88.2131,4.032,2.74,1111122 
DISL,ioos:station:DISL:KATA:1,2015-05-06T08:30:00Z,30.2583,-88.2131,4.06,2.72,1111122 
DISL,ioos:station:DISL:KATA:1,2015-05-06T09:00:00Z,30.2583,-88.2131,4.074,2.92,1111122 
DISL,ioos:station:DISL:KATA:1,2015-05-06T09:30:00Z,30.2583,-88.2131,4.091,3.22,1111122 
DISL,ioos:station:DISL:KATA:1,2015-05-06T10:00:00Z,30.2583,-88.2131,4.101,3.32,1111122 
DISL,ioos:station:DISL:KATA:1,2015-05-06T10:30:00Z,30.2583,-88.2131,4.122,3.09,1111122 
DISL,ioos:station:DISL:KATA:1,2015-05-06T11:00:00Z,30.2583,-88.2131,4.137,2.89,1111122 
DISL,ioos:station:DISL:KATA:1,2015-05-06T11:30:00Z,30.2583,-88.2131,4.161,3.1,1111122 
DISL,ioos:station:DISL:KATA:1,2015-05-06T12:00:00Z,30.2583,-88.2131,4.184,3.05,1111122 
DISL,ioos:station:DISL:KATA:1,2015-05-06T12:30:00Z,30.2583,-88.2131,4.209,3.22,1111122 
DISL,ioos:station:DISL:KATA:1,2015-05-06T13:00:00Z,30.2583,-88.2131,4.238,3.15,1111122 
DISL,ioos:station:DISL:KATA:1,2015-05-06T13:30:00Z,30.2583,-88.2131,4.268,3.21,1111122 
DISL,ioos:station:DISL:KATA:1,2015-05-06T14:00:00Z,30.2583,-88.2131,4.294,3.21,1111122 
DISL,ioos:station:DISL:KATA:1,2015-05-06T14:30:00Z,30.2583,-88.2131,4.324,3.46,1111122 
DISL,ioos:station:DISL:KATA:1,2015-05-06T15:00:00Z,30.2583,-88.2131,4.343,3.29,1111122 
DISL,ioos:station:DISL:KATA:1,2015-05-06T15:30:00Z,30.2583,-88.2131,4.363,3.05,1111122 